This is the latest recevied weather packets stored in our database for station/object IZ5MMH-1. If no packets are shown the sender has not sent any weather packets the latest 10 day(s).
| Time | Temp. | Humidity | Pressure | Rain* | Wind** | Luminosity | Snow |
|---|---|---|---|---|---|---|---|
| 1787374092 | 18.89° C | 77% | 1013.9 hPa | - | - | - | - |
| 1787373491 | 18.89° C | 76% | 1013.8 hPa | - | - | - | - |
| 1787372891 | 18.89° C | 74% | 1013.7 hPa | - | - | - | - |
| 1787372291 | 18.89° C | 74% | 1013.6 hPa | - | - | - | - |
| 1787371691 | 19.44° C | 76% | 1013.5 hPa | - | - | - | - |
| 1787371091 | 19.44° C | 75% | 1013.5 hPa | - | - | - | - |
| 1787370492 | 19.44° C | 74% | 1013.5 hPa | - | - | - | - |
| 1787369891 | 19.44° C | 75% | 1013.6 hPa | - | - | - | - |
| 1787369291 | 19.44° C | 76% | 1013.5 hPa | - | - | - | - |
| 1787368691 | 19.44° C | 73% | 1013.5 hPa | - | - | - | - |
| 1787368092 | 20° C | 73% | 1013.5 hPa | - | - | - | - |
| 1787367491 | 20° C | 74% | 1013.4 hPa | - | - | - | - |
| 1787366892 | 20° C | 74% | 1013.2 hPa | - | - | - | - |
| 1787366292 | 20° C | 74% | 1013.2 hPa | - | - | - | - |
| 1787365691 | 20° C | 72% | 1013.1 hPa | - | - | - | - |
| 1787365091 | 20° C | 74% | 1013.1 hPa | - | - | - | - |
| 1787364491 | 20° C | 71% | 1013 hPa | - | - | - | - |
| 1787363920 | 20° C | 72% | 1013.2 hPa | - | - | - | - |
| 1787363291 | 20° C | 72% | 1013 hPa | - | - | - | - |
| 1787362691 | 20° C | 74% | 1013 hPa | - | - | - | - |
| 1787362091 | 20° C | 73% | 1013.1 hPa | - | - | - | - |
| 1787361490 | 20° C | 71% | 1013 hPa | - | - | - | - |
| 1787360890 | 20° C | 72% | 1013.1 hPa | - | - | - | - |
| 1787360291 | 20.56° C | 73% | 1013 hPa | - | - | - | - |
| 1787359690 | 20.56° C | 71% | 1012.9 hPa | - | - | - | - |
* Rain since midnight (hover to see other rain measurements)
** Current wind speed in m/s (hover to see current wind gust speed)